Regional Weather Roundup
Issued by NWS Charleston, SC

Current Version | Previous Version | Text Only | Print | Product List | Glossary On
Versions: 1 2 3 4 5 6 7 8 9 10 11 12 13 14 15 16 17 18 19 20 21 22 23 24 25 26 27 28 29 30 31 32 33 34 35 36 37 38 39 40 41 42 43 44 45 46 47 48 49 50
000 ASUS42 KCHS 271712 RWRCHS REGIONAL WEATHER ROUNDUP NATIONAL WEATHER SERVICE CHARLESTON SC 100 PM EDT THU AUG 27 2015 NOTE: "FAIR" INDICATES FEW OR NO CLOUDS BELOW 12,000 FEET WITH NO SIGNIFICANT WEATHER AND/OR OBSTRUCTIONS TO VISIBILITY. NOT ALL STATIONS ARE QUALITY CONTROLLED BY THE NATIONAL WEATHER SERVICE. USE DATA WITH CAUTION...ESPECIALLY DEWPOINT OBSERVATIONS. SCZ027-030-031-034>040-042>050-271800- ...SOUTHEAST SOUTH CAROLINA... CITY SKY/WX TMP DP RH WIND PRES REMARKS N CHARLESTON PTSUNNY 81 71 71 N5 30.00F WATERFRONT PRK N/A 76 73 90 S7 29.98S MOUNT PLEASANT PTSUNNY 82 73 74 SW9 30.00F JOHNS ISLAND PTSUNNY 81 73 78 CALM 30.00F PINOPOLIS N/A 82 73 74 NE5 29.94F MONCKS CORNER FAIR 82 72 69 CALM 30.00F SUMMERVILLE CLOUDY 81 72 74 CALM 30.02S BEAUFORT MCAS TSTM 70 67 90 SW6 30.00R FOG BEAUFORT ARPT TSTM 77 75 94 CALM 29.98S HILTON HEAD IS NOT AVBL WALTERBORO CLOUDY 82 72 69 NE7 30.02S ALLENDALE PTSUNNY 79 73 83 N10 30.01F ...SOUTHERN MIDLANDS AND PEE DEE... CITY SKY/WX TMP DP RH WIND PRES REMARKS GEORGETOWN NOT AVBL KINGSTREE NOT AVBL ORANGEBURG CLOUDY 79 70 74 E5 30.03S BARNWELL CLOUDY 81 73 78 SE10 30.02F AIKEN CLOUDY 77 64 65 NE10 30.08S MANNING CLOUDY 79 70 73 CALM 30.02S COLUMBIA CLOUDY 82 67 60 NE9 30.03F SUMTER CLOUDY 79 69 72 NE9 30.02F FLORENCE CLOUDY 81 70 69 NE7 30.03F MYRTLE BEACH PTSUNNY 81 72 74 N12 N/A N MYRTLE BEACH CLOUDY 80 72 76 N9 30.01F $$ GAZ063-065-086>088-099>101-113>116-118-119-134>141-150-271800- ...SOUTHEAST GEORGIA... CITY SKY/WX TMP DP RH WIND PRES REMARKS SAVANNAH ARPT PTSUNNY 85 74 69 SE8 29.96F HX 92 HUNTER AAF MOSUNNY 87 79 78 E6 29.94F HX 101 FORT STEWART CLOUDY 86 74 68 E6 29.94F HX 94 STATESBORO PTSUNNY 85 77 76 NE5 29.98F HX 95 SYLVANIA NOT AVBL CLAXTON NOT AVBL ...CSRA...CENTRAL AND FAR SOUTHEAST GEORGIA... CITY SKY/WX TMP DP RH WIND PRES REMARKS THOMSON PTSUNNY 81 72 75 E6 30.08F AUGUSTA-BUSH PTSUNNY 85 71 63 NE8 30.00F HX 90 AUGUSTA-DANIEL PTSUNNY 84 70 62 VRB7 30.03F SWAINSBORO FAIR 88 73 62 NE7G16 30.00F HX 96 VIDALIA SUNNY 88 70 55 E3 29.99S HX 92 EASTMAN FAIR 89 66 45 E3 30.01F HX 91 HAZLEHURST FAIR 91 61 37 E3 29.97S HX 91 ALMA SUNNY 89 61 38 E10 29.97F WAYCROSS SUNNY 90 75 60 CALM 29.97F HX 100 JESUP FAIR 90 73 58 E6 29.96F HX 98 BAXLEY FAIR 91 61 35 SE5 29.96F HX 91 BRUNSWICK MOSUNNY 88 70 55 S6 29.96F HX 92 SAINT SIMONS MOSUNNY 82 70 66 SE6 29.96F $$ SCZ027-028-034-036>038-045-046-048>050-GAZ119-141-271800- ...LAKE AND SUPPLEMENTAL COASTAL OBSERVATIONS... STATION/POSITION TIME TEMP WIND PRES WAVE SWELL AIR SEA DIR/SP/G HT/PER HT/PER/DIR (UTC) (F) (DEG/KT/KT) (MB) (FT/S) (FT/S/D) UPR LAKE MARION NOT AVBL WINYAH BAY 1545 78 350/ 3 1016.0 LAKE MURRAY 1600 77 50/ 3/ 9 1017.3S ACE BASIN NERRS NOT AVBL FORT PULASKI 1600 84 86 140/ 7/ 10 1015.4F SAPELO ISLAND 1600 83 230/ 3 1015.0S $$ ANZ835-935-AMZ111-154-330-350-352-354-370-450-454-472-271800- ...C-MAN AND BUOY OBSERVATIONS... STATION/POSITION TIME TEMP WIND PRES WAVE SWELL AIR SEA DIR/SP/G HT/PER HT/PER/DIR (UTC) (F) (DEG/KT/KT) (MB) (FT/S) (FT/S/D) BUOY 41004 1650 82 84 100/ 2/ 4 1015.2F 4/10 3/10 BUOY 41008 1650 82 86 140/ 8/ 10 1015.1F 2/10 2/100/10 FOLLY BEACH CMAN 1600 80 140/ 8/ 9 1016.2F CAPERS NEARSHORE 1608 78 180/ 6/ 10 1016.4F FRIPP NEARSHORE 1600 83 140/ 14/ 17 1015.3S STATION/POSITION TIME TEMP WIND PRES WAVE SWELL AIR SEA DIR/SP/G HT/PER HT/PER/DIR (UTC) (F) (DEG/KT/KT) (MB) (FT/S) (FT/S/D) 5E ST. MARYS GA 1621 87 N/A 2/10 2/110/11 FRYING PAN BUOY 1650 81 81 60/ 14/ 17 1016.0F BUOY 41025 1650 78 82 60/ 17/ 19 1016.1F 5/ 9 3/100/ 9 CAPE LOOKOUT NC 1600 80 40/ 13/ 15 1016.6R BUOY 41002 1650 78 84 40/ 10/ 14 1016.6F 3/10 3/130/10 BUOY 41010 1620 83 86 230/ 4/ 6 1016.0R ST AUGUSTINE FL 1700 82 87 90/ 6/ 6 1015.6F $$

USA.gov is the U.S. government's official web portal to all federal, state and local government web resources and services.